Back to catalog

LEMUR 2 EMBRIONOVIS

AliveWeatherSSO
NORAD 56970·PAYLOAD·🇺🇸 United States

Launched Jun 12, 2023 from Vandenberg Space Force Base

Loading…

Next Passes (next 24 hours)

TLE

FreshSource: Space-Track

Epoch: Sep 14, 2026, 08:46 UTC

1 56970U 23084AQ  26257.36547002  .00010804  00000-0  27584-3 0  9995
2 56970  97.6414  45.1980 0008204   5.5223 354.6111 15.39646242181393

Track LEMUR 2 EMBRIONOVIS in real time with AllMySat

Download on the App Store